Tracking 25656 objects as of 21-May-2022
HD Live streaming from Space Station
objects crossing your sky now

ONEWEB-0226

Track ONEWEB-0226 now!
10-day predictions
ONEWEB-0226 is classified as:


NORAD ID: 48793
Int'l Code: 2021-045AC
Perigee: 1,207.5 km
Apogee: 1,210.5 km
Inclination: 87.9 °
Period: 109.5 minutes
Semi major axis: 7579 km
RCS: Unknown
Launch date: May 28, 2021
Source: United Kingdom (UK)
Launch site: VOSTOCHNY COSMODROME (VOSTO)
aabbcc
Your satellite tracking list
Your tracking list is empty




NASA's NSSDC Master Catalog

Two Line Element Set (TLE):
1 48793U 21045AC  22141.58335648  .00037198  00000-0  98398-1 0  9991
2 48793  87.9168 195.0580 0002000  71.3206 228.1009 13.15532584  1304
Source of the keplerian elements: AFSPC